EW9800 Weather Reports


time (UTC)temp
F
wind
direction
speed
knots
gust
knots
rain 1hr
in
rain 24hr
in
rain mn
in
humidity
%
barometer
mb
20260505224003 79 166 1.7 7.0 0.00 0.00 0.00 30 1008.0
20260505223502 79 158 1.7 7.0 0.00 0.00 0.00 30 1007.9
20260505223004 79 150 0.9 7.8 0.00 0.00 0.00 30 1007.9
20260505222502 80 258 1.7 7.8 0.00 0.00 0.00 30 1008.0
20260505222003 80 110 0.9 7.0 0.00 0.00 0.00 30 1007.8
20260505221506 80 133 1.7 8.7 0.00 0.00 0.00 30 1007.9
20260505221004 80 215 1.7 8.7 0.00 0.00 0.00 29 1007.9
20260505220504 80 228 1.7 5.2 0.00 0.00 0.00 29 1007.7
20260505220004 81 151 1.7 5.2 0.00 0.00 0.00 28 1007.8
20260505215504 81 116 0.9 7.8 0.00 0.00 0.00 29 1007.7
20260505215004 80 167 2.6 7.8 0.00 0.00 0.00 28 1007.9
20260505214512 80 62 1.7 7.0 0.00 0.00 0.00 30 1007.9
20260505214003 80 155 0.9 8.7 0.00 0.00 0.00 30 1007.7
20260505213506 80 230 0.9 8.7 0.00 0.00 0.00 30 1007.7
20260505213008 80 162 2.6 7.8 0.00 0.00 0.00 29 1007.4
20260505212502 80 158 1.7 8.7 0.00 0.00 0.00 30 1007.4
20260505212002 81 218 1.7 8.7 0.00 0.00 0.00 30 1007.4
20260505211503 81 266 1.7 8.7 0.00 0.00 0.00 30 1007.2
20260505211003 81 175 2.6 8.7 0.00 0.00 0.00 31 1007.3
20260505210503 81 237 2.6 8.7 0.00 0.00 0.00 30 1007.3
20260505210005 82 205 1.7 7.0 0.00 0.00 0.00 30 1007.2
20260505205503 81 195 1.7 7.8 0.00 0.00 0.00 30 1007.2
20260505205002 81 242 2.6 7.8 0.00 0.00 0.00 31 1007.1
20260505204509 80 175 3.5 11.3 0.00 0.00 0.00 30 1007.3
20260505204006 80 248 2.6 11.3 0.00 0.00 0.00 30 1007.3
20260505203502 82 221 4.3 11.3 0.00 0.00 0.00 29 1007.2
20260505203025 82 194 2.6 9.6 0.00 0.00 0.00 29 1007.2
20260505202506 82 175 2.6 7.8 0.00 0.00 0.00 30 1007.4
20260505202008 82 143 3.5 8.7 0.00 0.00 0.00 30 1007.5
20260505201504 82 156 3.5 8.7 0.00 0.00 0.00 30 1007.7
20260505201002 83 136 0.9 7.8 0.00 0.00 0.00 30 1007.6
20260505200502 83 207 1.7 7.8 0.00 0.00 0.00 29 1007.5
20260505200004 83 262 1.7 8.7 0.00 0.00 0.00 30 1007.5
20260505195503 84 228 1.7 8.7 0.00 0.00 0.00 30 1007.3
20260505195003 84 201 0.9 8.7 0.00 0.00 0.00 30 1007.7
20260505194504 83 233 2.6 8.7 0.00 0.00 0.00 30 1007.5
20260505194003 83 197 2.6 9.6 0.00 0.00 0.00 30 1007.7
20260505193503 82 145 2.6 9.6 0.00 0.00 0.00 30 1007.7
20260505193012 83 185 3.5 9.6 0.00 0.00 0.00 30 1007.7
20260505192505 83 143 2.6 9.6 0.00 0.00 0.00 30 1007.9
20260505192007 83 204 2.6 10.4 0.00 0.00 0.00 29 1008.0
20260505191518 83 161 2.6 10.4 0.00 0.00 0.00 30 1008.0
20260505191003 83 198 1.7 9.6 0.00 0.00 0.00 31 1007.7
20260505190509 82 145 2.6 9.6 0.00 0.00 0.00 31 1008.2
20260505190030 84 164 1.7 9.6 0.00 0.00 0.00 31 1008.2
20260505185503 83 206 2.6 9.6 0.00 0.00 0.00 32 1008.2
20260505185005 84 166 3.5 8.7 0.00 0.00 0.00 31 1008.3
20260505184508 84 147 1.7 7.0 0.00 0.00 0.00 32 1008.4
20260505184004 85 189 1.7 7.0 0.00 0.00 0.00 32 1008.7
20260505183503 84 245 0.9 6.1 0.00 0.00 0.00 35 1008.7
20260505183008 84 155 2.6 6.1 0.00 0.00 0.00 32 1008.7
20260505182503 83 158 1.7 5.2 0.00 0.00 0.00 34 1008.8
20260505182003 83 180 1.7 7.8 0.00 0.00 0.00 33 1008.8
20260505181514 83 185 2.6 10.4 0.00 0.00 0.00 34 1008.9
20260505181003 83 171 2.6 10.4 0.00 0.00 0.00 34 1008.9
20260505180506 83 139 1.7 4.3 0.00 0.00 0.00 34 1009.0
20260505180018 83 242 0.9 11.3 0.00 0.00 0.00 37 1009.0
20260505175504 82 124 2.6 11.3 0.00 0.00 0.00 35 1009.1
20260505175014 81 168 3.5 8.7 0.00 0.00 0.00 35 1009.0
20260505174522 82 190 1.7 11.3 0.00 0.00 0.00 37 1009.2
20260505174003 81 175 0.9 11.3 0.00 0.00 0.00 37 1009.0
20260505173503 82 185 1.7 5.2 0.00 0.00 0.00 37 1009.1
20260505173008 82 155 0.9 5.2 0.00 0.00 0.00 38 1009.2
20260505172504 83 224 1.7 7.0 0.00 0.00 0.00 36 1009.2
20260505172003 82 197 2.6 7.0 0.00 0.00 0.00 37 1009.4
20260505171511 81 260 0.9 7.0 0.00 0.00 0.00 39 1009.5
20260505171005 82 148 2.6 7.0 0.00 0.00 0.00 37 1009.6
20260505170506 82 198 0.9 7.0 0.00 0.00 0.00 38 1009.5
20260505170020 81 148 1.7 7.0 0.00 0.00 0.00 39 1009.6
20260505165506 80 151 1.7 7.0 0.00 0.00 0.00 40 1009.7
20260505165006 80 156 1.7 7.0 0.00 0.00 0.00 43 1009.7
20260505164520 79 175 1.7 7.8 0.00 0.00 0.00 40 1009.8
20260505164008 79 167 1.7 7.8 0.00 0.00 0.00 41 1009.8
20260505163509 80 198 1.7 7.8 0.00 0.00 0.00 39 1010.0
20260505163026 79 168 2.6 6.1 0.00 0.00 0.00 40 1009.9
20260505162506 79 171 1.7 5.2 0.00 0.00 0.00 40 1010.0
20260505162005 80 218 2.6 5.2 0.00 0.00 0.00 38 1010.1
20260505161509 80 125 1.7 3.5 0.00 0.00 0.00 41 1010.2
20260505161004 79 185 0.9 9.6 0.00 0.00 0.00 42 1010.2
20260505160510 77 180 1.7 9.6 0.00 0.00 0.00 42 1010.2
20260505153021 75 229 0.9 7.8 0.00 0.00 0.00 46 1010.7
20260505152509 74 161 1.7 7.8 0.00 0.00 0.00 46 1010.8
20260505152009 75 175 2.6 5.2 0.00 0.00 0.00 46 1010.7
20260505151532 76 129 0.0 3.5 0.00 0.00 0.00 46 1010.7
20260505151008 75 105 0.0 3.5 0.00 0.00 0.00 47 1010.7
20260505150507 74 142 0.9 5.2 0.00 0.00 0.00 47 1010.8
20260505140503 71 148 1.7 6.1 0.00 0.00 0.00 50 1011.2
20260505125005 63 142 0.0 3.5 0.00 0.00 0.00 66 1011.1
20260505124512 62 175 0.9 3.5 0.00 0.00 0.00 69 1011.0
20260505124004 61 185 0.0 3.5 0.00 0.00 0.00 72 1011.1
20260505123505 60 166 0.9 2.6 0.00 0.00 0.00 74 1011.1
20260505123015 59 156 0.0 2.6 0.00 0.00 0.00 76 1011.0
20260505122503 59 138 0.0 2.6 0.00 0.00 0.00 78 1011.1
20260505122008 57 156 0.0 3.5 0.00 0.00 0.00 79 1011.2
20260505121526 57 119 0.9 3.5 0.00 0.00 0.00 80 1011.3
20260505121009 56 137 0.9 2.6 0.00 0.00 0.00 81 1011.4
20260505120508 55 134 0.9 1.7 0.00 0.00 0.00 84 1011.4
20260505120052 55 161 0.0 1.7 0.00 0.00 0.00 85 1011.4
20260505115506 54 175 0.0 0.9 0.00 0.00 0.00 86 1011.4
20260505115007 54 175 0.0 1.7 0.00 0.00 0.00 86 1011.3
20260505114510 53 175 0.0 1.7 0.00 0.00 0.00 85 1011.4
20260505114004 53 175 0.0 1.7 0.00 0.00 0.00 85 1011.3
20260505113505 53 254 0.0 1.7 0.00 0.00 0.00 84 1011.2
20260505113012 52 254 0.9 2.6 0.00 0.00 0.00 84 1011.1
20260505112503 52 320 0.0 2.6 0.00 0.00 0.00 84 1011.0
20260505112007 52 359 0.9 2.6 0.00 0.00 0.00 84 1010.9
20260505111517 52 327 0.0 1.7 0.00 0.00 0.00 85 1010.8
20260505111009 52 29 0.0 0.0 0.00 0.00 0.00 85 1010.7
20260505110508 51 40 0.0 0.0 0.00 0.00 0.00 84 1011.2
20260505102006 50 71 0.0 0.0 0.00 0.00 0.00 81 1011.2
20260505101521 50 71 0.0 0.0 0.00 0.00 0.00 81 1011.2
20260505101006 50 71 0.0 0.0 0.00 0.00 0.00 81 1011.1
20260505100508 50 71 0.0 0.0 0.00 0.00 0.00 81 1011.0
20260505100024 50 71 0.0 0.0 0.00 0.00 0.00 81 1010.9
20260505095507 50 71 0.0 0.0 0.00 0.00 0.00 80 1011.0
20260505095008 50 67 0.0 0.0 0.00 0.00 0.00 80 1011.0
20260505094524 50 66 0.0 0.0 0.00 0.00 0.00 80 1010.8
20260505094006 50 66 0.0 0.0 0.00 0.00 0.00 79 1010.8
20260505093507 50 66 0.0 0.0 0.00 0.00 0.00 78 1010.8
20260505093025 50 66 0.0 0.0 0.00 0.00 0.00 78 1010.8
20260505092507 51 66 0.0 0.0 0.00 0.00 0.00 78 1010.6
20260505092007 51 66 0.0 0.0 0.00 0.00 0.00 78 1010.6
20260505091529 51 66 0.0 0.0 0.00 0.00 0.00 78 1010.5
20260505091009 51 66 0.0 0.0 0.00 0.00 0.00 78 1010.5
20260505090504 51 66 0.0 0.0 0.00 0.00 0.00 78 1010.4
20260505090034 51 66 0.0 0.0 0.00 0.00 0.00 78 1010.3
20260505085510 51 66 0.0 0.0 0.00 0.00 0.00 78 1010.2
20260505085008 51 66 0.0 0.0 0.00 0.00 0.00 77 1010.3
20260505084520 51 66 0.0 0.0 0.00 0.00 0.00 77 1010.4
20260505084008 51 66 0.0 0.0 0.00 0.00 0.00 76 1010.4
20260505083507 51 66 0.0 0.0 0.00 0.00 0.00 76 1010.3
20260505083026 51 66 0.0 0.0 0.00 0.00 0.00 75 1010.4
20260505082510 51 66 0.0 0.0 0.00 0.00 0.00 76 1010.3
20260505082010 51 66 0.0 0.0 0.00 0.00 0.00 76 1010.3
20260505081528 51 66 0.0 0.0 0.00 0.00 0.00 76 1010.3
20260505081007 51 66 0.0 0.0 0.00 0.00 0.00 76 1010.4
20260505080507 51 66 0.0 0.0 0.00 0.00 0.00 75 1010.5
20260505080033 52 66 0.0 0.0 0.00 0.00 0.00 75 1010.5
20260505075509 52 66 0.0 0.0 0.00 0.00 0.00 75 1010.4
20260505075009 52 66 0.0 0.0 0.00 0.00 0.00 75 1010.4
20260505074520 52 66 0.0 0.0 0.00 0.00 0.00 75 1010.4
20260505074008 52 66 0.0 0.0 0.00 0.00 0.00 75 1010.3
20260505073508 52 66 0.0 0.0 0.00 0.00 0.00 74 1010.3
20260505073042 52 66 0.0 0.0 0.00 0.00 0.00 73 1010.3
20260505072511 52 66 0.0 0.0 0.00 0.00 0.00 73 1010.3
20260505072008 52 66 0.0 0.0 0.00 0.00 0.00 73 1010.2
20260505071525 52 66 0.0 0.0 0.00 0.00 0.00 72 1010.3
20260505071008 52 66 0.0 0.0 0.00 0.00 0.00 72 1010.3
20260505070510 52 66 0.0 0.0 0.00 0.00 0.00 72 1010.3
20260505070027 52 66 0.0 0.0 0.00 0.00 0.00 72 1010.4
20260505065508 53 66 0.0 1.7 0.00 0.00 0.00 71 1010.4
20260505065008 53 66 0.0 1.7 0.00 0.00 0.00 71 1010.3
20260505064539 53 66 0.0 1.7 0.00 0.00 0.00 72 1010.3
20260505064008 53 66 0.0 1.7 0.00 0.00 0.00 71 1010.3
20260505063509 53 94 0.0 0.0 0.00 0.00 0.00 71 1010.3
20260505063022 53 94 0.0 0.0 0.00 0.00 0.00 70 1010.4
20260505062511 54 94 0.0 0.9 0.00 0.00 0.00 70 1010.4
20260505062015 54 94 0.0 0.9 0.00 0.00 0.00 70 1010.4
20260505061540 54 94 0.0 0.9 0.00 0.00 0.00 69 1010.5
20260505061007 54 94 0.0 1.7 0.00 0.00 0.00 69 1010.5
20260505060511 54 94 0.0 1.7 0.00 0.00 0.00 70 1010.5
20260505060028 54 94 0.0 0.9 0.00 0.00 0.00 69 1010.5
20260505055512 54 94 0.0 1.7 0.00 0.00 0.00 69 1010.4
20260505055010 54 94 0.0 1.7 0.00 0.00 0.00 68 1010.6
20260505054551 54 94 0.0 0.0 0.00 0.00 0.00 67 1010.5
20260505054012 54 94 0.0 0.9 0.00 0.00 0.00 67 1010.4
20260505053512 54 94 0.0 0.9 0.00 0.00 0.00 67 1010.6
20260505053005 55 94 0.0 0.0 0.00 0.00 0.00 66 1010.6
20260505052503 55 94 0.0 0.9 0.00 0.00 0.00 65 1010.7
20260505052003 55 94 0.0 0.9 0.00 0.00 0.00 65 1010.8
20260505051506 55 94 0.0 0.9 0.00 0.00 0.00 64 1010.8
20260505051006 55 94 0.0 0.9 0.00 0.00 0.00 65 1010.8
20260505050503 55 94 0.0 0.9 0.00 0.00 0.00 65 1010.9
20260505041508 56 48 0.0 1.7 0.00 0.00 0.00 62 1010.8
20260505041002 56 48 0.0 1.7 0.00 0.00 0.00 61 1010.8
20260505040503 56 54 0.0 0.0 0.00 0.00 0.00 60 1010.9
20260505040005 56 54 0.0 0.9 0.00 0.00 0.00 61 1010.9
20260505035502 56 55 0.0 0.9 0.00 0.00 0.00 60 1010.8
20260505035001 56 55 0.0 0.9 0.00 0.00 0.00 59 1010.8
20260505034509 56 54 0.0 0.9 0.00 0.00 0.00 58 1010.9
20260505034006 57 54 0.0 0.9 0.00 0.00 0.00 58 1010.9
20260505033506 57 54 0.0 0.0 0.00 0.00 0.00 59 1010.9
20260505033012 57 55 0.0 0.0 0.00 0.00 0.00 58 1011.0
20260505032504 57 55 0.0 0.9 0.00 0.00 0.00 58 1011.0
20260505032007 57 54 0.0 1.7 0.00 0.00 0.00 57 1011.0
20260505031512 57 54 0.0 1.7 0.00 0.00 0.00 57 1011.1
20260505031002 58 56 0.0 0.9 0.00 0.00 0.00 57 1011.1
20260505030502 58 56 0.0 0.9 0.00 0.00 0.00 54 1011.1
20260505030004 58 56 0.0 0.9 0.00 0.00 0.00 55 1011.2
20260505025504 58 56 0.0 0.9 0.00 0.00 0.00 55 1011.1
20260505025004 59 56 0.0 1.7 0.00 0.00 0.00 55 1011.2
20260505024515 59 56 0.0 1.7 0.00 0.00 0.00 54 1011.2
20260505024003 59 60 0.0 1.7 0.00 0.00 0.00 54 1011.1
20260505023503 59 74 0.0 0.9 0.00 0.00 0.00 54 1011.1
20260505023012 59 74 0.0 1.7 0.00 0.00 0.00 52 1011.2
20260505022503 60 74 0.0 1.7 0.00 0.00 0.00 52 1011.1
20260505022006 60 122 0.0 0.0 0.00 0.00 0.00 52 1011.1
20260505021519 60 122 0.0 0.0 0.00 0.00 0.00 51 1011.2
20260505021011 61 122 0.0 0.0 0.00 0.00 0.00 52 1011.2
20260505020506 61 122 0.0 0.0 0.00 0.00 0.00 51 1011.3
20260505020006 61 122 0.0 0.0 0.00 0.00 0.00 50 1011.2
20260505015503 61 122 0.0 0.0 0.00 0.00 0.00 51 1011.1
20260505015003 62 122 0.0 0.0 0.00 0.00 0.00 49 1011.1
20260505014504 62 122 0.0 0.0 0.00 0.00 0.00 48 1011.0
20260505014003 62 122 0.0 0.0 0.00 0.00 0.00 49 1011.1
20260505013504 63 122 0.0 0.0 0.00 0.00 0.00 49 1011.0
20260505013007 63 122 0.0 0.0 0.00 0.00 0.00 46 1011.0
20260505012503 63 122 0.0 0.9 0.00 0.00 0.00 46 1010.9
20260505012002 63 122 0.0 0.9 0.00 0.00 0.00 45 1010.9
20260505011520 64 122 0.0 0.9 0.00 0.00 0.00 45 1010.7
20260505011006 64 122 0.0 0.9 0.00 0.00 0.00 44 1010.7
20260505010513 64 122 0.0 0.9 0.00 0.00 0.00 43 1010.6
20260505010017 65 122 0.0 0.9 0.00 0.00 0.00 43 1010.5
20260505005504 65 122 0.0 1.7 0.00 0.00 0.00 43 1010.4
20260505005007 65 122 0.0 1.7 0.00 0.00 0.00 42 1010.5
20260505004541 65 112 0.0 1.7 0.00 0.00 0.00 42 1010.3
20260505004003 65 175 0.0 1.7 0.00 0.00 0.00 42 1010.3
20260505003502 66 175 0.0 2.6 0.00 0.00 0.00 42 1010.2
20260505003006 66 175 0.0 3.5 0.00 0.00 0.00 41 1010.1
20260505002507 66 109 0.9 3.5 0.00 0.00 0.00 40 1010.1
20260505002003 67 164 0.0 1.7 0.00 0.00 0.00 40 1010.0
20260505001508 67 169 0.0 1.7 0.00 0.00 0.00 40 1009.9
20260505001005 67 175 0.9 1.7 0.00 0.00 0.00 39 1009.8
20260505000503 67 175 0.0 4.3 0.00 0.00 0.00 39 1009.7
20260505000039 67 197 0.9 4.3 0.00 0.00 0.00 38 1009.7
20260504235504 68 172 0.9 4.3 0.00 0.00 0.00 38 1009.5
20260504235008 68 168 0.9 4.3 0.00 0.00 0.00 38 1009.5
20260504234518 68 233 0.9 3.5 0.00 0.00 0.00 38 1009.4
20260504234006 68 147 0.9 3.5 0.00 0.00 0.00 37 1009.3
20260504233508 68 137 0.9 3.5 0.00 0.00 0.00 37 1009.1
20260504233024 69 160 0.9 3.5 0.00 0.00 0.00 36 1009.1
20260504232505 69 185 0.0 3.5 0.00 0.00 0.00 37 1009.1
20260504232003 69 185 0.0 3.5 0.00 0.00 0.00 37 1009.0
20260504231508 69 228 0.9 3.5 0.00 0.00 0.00 37 1009.1
20260504231004 69 169 0.0 3.5 0.00 0.00 0.00 37 1009.0
20260504230504 69 164 1.7 6.1 0.00 0.00 0.00 36 1008.9
20260504230026 69 224 0.9 7.8 0.00 0.00 0.00 36 1008.9
20260504225507 69 160 0.9 7.8 0.00 0.00 0.00 36 1008.8
20260504225005 69 162 2.6 7.8 0.00 0.00 0.00 35 1008.9
20260504224515 70 228 0.9 4.3 0.00 0.00 0.00 36 1008.8